South Bend, IN

8:58 PM EST on December 05, 2016 (GMT -0500)
South Bend Regional

Weather History for KSBN - November, 2013

Change the Weather History Date:

Tuesday, November 26, 2013

  Actual Average Record
Temperature  
Mean Temperature 30 °F 36 °F  
Max Temperature 33 °F 43 °F 67 °F (1908)
Min Temperature 26 °F 29 °F 5 °F (1977)
Degree Days  
Heating Degree Days 35 29  
Month to date heating degree days 648 608  
Since 1 July heating degree days 1147 1149  
Moisture  
Dew Point 23 °F    
Average Humidity 72    
Maximum Humidity 85    
Minimum Humidity 58    
Precipitation  
Precipitation 0.04 in 0.10 in 1.85 in (1950)
Month to date precipitation 2.44 2.84  
Year to date precipitation 37.83 34.96  
Snow  
Snow 0.50 in 0.30 in 5.90 in (1977)
Month to date snowfall 2.7 3.7  
Since 1 July snowfall 4.1  
Since 1 September snowfall 4.1  
Snow Depth 0.00 in    
Sea Level Pressure  
Sea Level Pressure 30.06 in    
Wind  
Wind Speed 9 mph (WNW)    
Max Wind Speed 23 mph    
Max Gust Speed 30 mph    
Visibility 8 miles    
Events Snow    
T = Trace of Precipitation, MM = Missing Value Source: NWS Daily Summary

Daily Weather History Graph

Daily Weather History Graph

Search for Another Location

Airport or City:

Trip Planner

Search our weather history database for the weather conditions in past years. The results will help you decide how hot, cold, wet, or windy it might be!

Date:

Astronomy

Nov. 26, 2013 Rise Set
Actual Time 7:47 AM EST 5:17 PM EST
Civil Twilight 7:17 AM EST 5:48 PM EST
Nautical Twilight 6:42 AM EST 6:22 PM EST
Astronomical Twilight 6:09 AM EST 6:55 PM EST
Moon 12:45 AM EST (11/26) 1:28 PM EST (11/26)
Length of Visible Light 10h 31m
Length of Day
9h 29m
Last Quarter, 41% of the Moon is Illuminated
Nov 26
Last Quarter
Dec 2
New
Dec 9
First Quarter
Dec 17
Full
Dec 25
Last Quarter

Hourly Weather History & Observations

Time (EST) Temp. Windchill Dew Point Humidity Pressure Visibility Wind Dir Wind Speed Gust Speed Precip Events Conditions
12:54 AM 28.9 °F - 24.1 °F 82% 30.12 in 10.0 mi North - - N/A   Overcast
1:09 AM 28.4 °F - 24.8 °F 86% 30.09 in 10.0 mi North - - N/A   Overcast
1:54 AM 28.9 °F - 24.1 °F 82% 30.12 in 10.0 mi North - - N/A   Overcast
2:54 AM 28.9 °F - 24.1 °F 82% 30.12 in 10.0 mi North - - N/A   Overcast
3:54 AM 28.9 °F - 24.1 °F 82% 30.12 in 10.0 mi North - - N/A   Overcast
4:38 AM 28.4 °F - 23.0 °F 80% 30.09 in 10.0 mi North - - N/A   Overcast
4:54 AM 28.9 °F - 23.0 °F 78% 30.12 in 10.0 mi North - - N/A   Overcast
5:29 AM 28.4 °F 19.7 °F 23.0 °F 80% 30.09 in 10.0 mi SW 9.2 mph - N/A   Overcast
5:54 AM 28.9 °F 20.4 °F 23.0 °F 78% 30.10 in 10.0 mi SW 9.2 mph - N/A   Overcast
6:54 AM 28.0 °F 19.3 °F 21.9 °F 78% 30.10 in 10.0 mi SW 9.2 mph - N/A   Overcast
7:54 AM 28.0 °F 19.3 °F 21.9 °F 78% 30.09 in 10.0 mi SW 9.2 mph - N/A   Overcast
8:54 AM 28.0 °F 21.7 °F 21.9 °F 78% 30.09 in 10.0 mi SW 5.8 mph - N/A   Overcast
9:54 AM 28.9 °F - 23.0 °F 78% 30.08 in 10.0 mi North - - N/A   Unknown
10:54 AM 30.0 °F 23.2 °F 23.0 °F 75% 30.08 in 10.0 mi SW 6.9 mph - N/A   Unknown
11:54 AM 30.9 °F 23.5 °F 24.1 °F 76% 30.07 in 10.0 mi SSW 8.1 mph - N/A   Overcast
12:54 PM 30.9 °F 25.2 °F 25.0 °F 79% 30.04 in 10.0 mi SW 5.8 mph - N/A   Overcast
1:54 PM 32.0 °F 27.5 °F 25.0 °F 75% 30.03 in 10.0 mi SW 4.6 mph - N/A   Overcast
2:54 PM 32.0 °F 25.6 °F 26.1 °F 79% 30.01 in 10.0 mi SW 6.9 mph - N/A   Overcast
3:39 PM 32.0 °F 26.4 °F 26.6 °F 80% 29.97 in 9.0 mi WSW 5.8 mph - 0.00 in   Overcast
3:54 PM 32.0 °F 26.4 °F 26.1 °F 79% 30.00 in 10.0 mi WSW 5.8 mph - 0.00 in   Overcast
4:22 PM 32.0 °F 26.4 °F 26.6 °F 80% 29.98 in 10.0 mi SW 5.8 mph - N/A   Overcast
4:51 PM 33.8 °F 25.3 °F 26.6 °F 75% 29.98 in 10.0 mi WNW 11.5 mph - 0.00 in   Overcast
4:54 PM 33.1 °F 26.9 °F 27.0 °F 78% 30.01 in 10.0 mi NNW 6.9 mph - 0.00 in   Overcast
5:54 PM 32.0 °F 21.2 °F 23.0 °F 69% 30.02 in 10.0 mi North 16.1 mph - N/A   Overcast
6:54 PM 30.0 °F 20.0 °F 21.9 °F 72% 30.05 in 10.0 mi NNW 12.7 mph - N/A   Overcast
7:09 PM 30.2 °F 19.3 °F 23.0 °F 75% 30.02 in 10.0 mi North 15.0 mph 20.7 mph N/A Snow Light Snow
7:54 PM 30.0 °F 20.0 °F 21.0 °F 69% 30.05 in 9.0 mi North 12.7 mph - 0.00 in Snow Light Snow
8:54 PM 30.0 °F 21.7 °F 19.0 °F 64% 30.06 in 10.0 mi North 9.2 mph - 0.00 in   Overcast
9:54 PM 30.9 °F 21.2 °F 17.1 °F 57% 30.05 in 10.0 mi NNW 12.7 mph 17.3 mph N/A   Overcast
10:54 PM 30.0 °F 20.5 °F 18.0 °F 61% 30.06 in 9.0 mi NNW 11.5 mph - 0.00 in Snow Light Snow
10:56 PM 28.4 °F 17.0 °F 19.4 °F 69% 30.03 in 0.8 mi NNW 15.0 mph 19.6 mph 0.00 in Snow Light Snow
11:03 PM 28.4 °F 18.5 °F 24.8 °F 86% 30.03 in 0.8 mi North 11.5 mph 19.6 mph 0.00 in Snow Light Snow
11:11 PM 26.6 °F 16.2 °F 24.8 °F 93% 30.03 in 1.5 mi NNE 11.5 mph - 0.01 in Snow Light Snow
11:19 PM 26.6 °F 19.1 °F 23.0 °F 86% 30.03 in 2.5 mi NNE 6.9 mph - 0.01 in Snow Light Snow
11:26 PM 26.6 °F 19.1 °F 23.0 °F 86% 30.03 in 5.0 mi NNE 6.9 mph - 0.01 in Snow Light Snow
11:36 PM 26.6 °F 20.0 °F 23.0 °F 86% 30.03 in 2.5 mi NNE 5.8 mph - 0.01 in Snow Light Snow
11:45 PM 26.6 °F 21.2 °F 23.0 °F 86% 30.03 in 1.0 mi North 4.6 mph - 0.02 in Snow Light Snow
11:54 PM 26.1 °F 19.4 °F 23.0 °F 88% 30.06 in 1.5 mi North 5.8 mph - 0.02 in Snow Light Snow